www.pogodaiklimat.ru

Погода и климат >> Архив погоды >> Италия >> Венеция аэропорт


ПОГОДА в Венеция аэропорту

  • Прогноз погоды в Венеция аэропорту
  • Монитор погоды в Венеция аэропорту

АРХИВ ПОГОДЫ в Венеция аэропорту

Время (UTC), дата Ветер
(напр.,м/с)
 
Видим.   Явления Облачность Т
(С)
Тd
(С)
f
(%)
Тe
(С)
Тes
(С)
Комфортность P
(гПа)
Po
(гПа)
Тmin
(С)
Tmax
(С)
R
(мм)
R24
(мм)
S
(см)
12 15.01 ЮЗ 3 н/о н/о +5.4 -1.8 60 +3 +3 1018.4 1017.7
15 15.01 Ю 2 н/о н/о +5.2 +2.0 80 +3 +3 1018.4 1017.7
18 15.01 штиль 0 н/о н/о +0.1 -2.6 82 -1 -1 1019.2 1018.4 +8.0
21 15.01 С 1 н/о н/о -1.2 -2.7 90 -3 -3 1020.1 1019.3
00 16.01 С 2 н/о н/о -1.7 -3.0 91 -5 -5 1019.8 1019.0
03 16.01 СВ 2 н/о н/о -2.3 -4.4 85 -6 -6 1019.7 1018.9
06 16.01 СЗ 1 н/о н/о -3.7 -6.5 81 -4 -4 1019.6 1018.8 -4.1 201
09 16.01 З 1 н/о н/о +1.6 0.0 89 -0 -0 1020.7 1019.9
12 16.01 З 1 н/о н/о +6.8 -3.6 47 +6 +6 1019.4 1018.7
15 16.01 Ю 2 н/о н/о +4.2 -0.3 72 +2 +2 1018.9 1018.1
18 16.01 штиль 0 н/о н/о +0.4 -1.1 90 -1 -1 1019.1 1018.3 +7.4
21 16.01 штиль 0 н/о н/о -1.2 -2.7 90 -2 -2 1019.2 1018.4
00 17.01 В 1 н/о н/о +0.7 -0.6 91 0 0 1018.4 1017.6
03 17.01 штиль 0 н/о н/о -0.8 -2.3 90 -2 -2 1017.2 1016.4
06 17.01 штиль 0 н/о н/о +0.6 -0.9 90 -1 -1 1016.3 1015.5 -1.6 0
09 17.01 В 1 н/о н/о +1.8 +0.3 90 -0 -0 1016.1 1015.3
12 17.01 штиль 0 н/о н/о +3.8 +2.0 88 +3 +3 1014.4 1013.7
15 17.01 В 1 н/о н/о +5.1 +2.6 84 +5 +5 1012.7 1012.0
18 17.01 штиль 0 н/о н/о +3.7 +2.0 89 +3 +3 1011.9 1011.2 +5.8
21 17.01 В 1 н/о н/о +3.2 +1.9 91 +2 +2 1010.9 1010.2
00 18.01 штиль 0 н/о н/о +2.8 +1.5 91 +2 +2 1009.6 1008.9 0.2
03 18.01 штиль 0 н/о н/о +2.8 +1.5 91 +2 +2 1009.0 1008.3
06 18.01 штиль 0 н/о н/о +3.1 +1.8 91 +2 +2 1009.4 1008.7 +2.6 1 0
09 18.01 штиль 0 н/о н/о +3.6 +2.2 91 +2 +2 1012.2 1011.5
12 18.01 В 6 н/о н/о +3.7 +2.2 90 -2 -2 1013.9 1013.2
15 18.01 В 9 н/о н/о +3.9 0.0 76 -3 -3 1014.7 1014.0
18 18.01 В 8 н/о н/о +2.1 +0.6 90 -5 -5 1016.6 1015.8 +5.0 2
21 18.01 В 7 н/о н/о +2.2 -1.1 79 -4 -4 1017.4 1016.6
00 19.01 В 9 н/о н/о +1.7 -3.5 68 -5 -5 1017.7 1016.9
03 19.01 В 7 н/о н/о +0.9 -3.5 72 -6 -6 1017.5 1016.7
06 19.01 В 6 н/о н/о +0.7 -3.1 76 -6 -6 1017.0 1016.2 +0.6
09 19.01 В 5 н/о н/о +0.9 -2.9 76 -5 -5 1017.7 1016.9
12 19.01 В 4 н/о н/о +1.9 -2.7 72 -3 -3 1017.2 1016.4
15 19.01 СВ 2 н/о н/о +2.5 -3.1 67 0 0 1016.1 1015.3
18 19.01 штиль 0 н/о н/о +0.2 -2.6 81 -1 -1 1016.1 1015.3 +3.0
21 19.01 В 2 н/о н/о -0.5 -3.2 82 -3 -3 1016.1 1015.3
00 20.01 СВ 2 н/о н/о -1.0 -4.6 77 -4 -4 1015.8 1015.0
03 20.01 СВ 1 н/о н/о -2.2 -5.2 80 -4 -4 1015.3 1014.5
06 20.01 С 2 н/о н/о -3.3 -4.7 90 -7 -7 1015.1 1014.3 -3.7 103
09 20.01 В 3 н/о н/о -0.8 -3.7 81 -5 -5 1016.1 1015.3
12 20.01 В 2 н/о н/о +1.9 -3.9 65 -1 -1 1015.9 1015.1
15 20.01 З 1 н/о н/о +3.0 -4.1 60 +2 +2 1015.4 1014.6
18 20.01 З 1 н/о н/о +1.2 -3.0 74 -0 -0 1016.3 1015.5 +5.3
21 20.01 С 1 н/о н/о +0.8 -3.4 73 -1 -1 1017.2 1016.4
00 21.01 СВ 1 н/о н/о -0.4 -3.0 83 -2 -2 1017.3 1016.5
03 21.01 СВ 2 н/о н/о -1.1 -3.3 85 -4 -4 1017.0 1016.2
06 21.01 СВ 2 н/о н/о -1.0 -3.6 82 -4 -4 1017.2 1016.4 -1.3 503
09 21.01 СВ 3 н/о н/о 0.0 -3.6 77 -5 -5 1017.9 1017.1
12 21.01 В 5 н/о н/о +3.9 -2.4 63 -1 -1 1017.2 1016.4
15 21.01 В 3 н/о н/о +3.3 -2.3 67 -0 -0 1016.2 1015.4
18 21.01 В 4 н/о н/о +1.0 -3.7 71 -4 -4 1016.2 1015.4 +4.7
21 21.01 СВ 4 н/о н/о -0.2 -4.7 72 -5 -5 1016.0 1015.2
00 22.01 СВ 3 н/о н/о -1.8 -4.7 81 -6 -6 1015.2 1014.4
03 22.01 СВ 2 н/о н/о -2.4 -5.1 82 -6 -6 1013.2 1012.4
06 22.01 СВ 3 н/о н/о -2.7 -5.6 80 -8 -8 1011.2 1010.4 -2.8 606
09 22.01 СВ 3 н/о н/о -1.3 -4.9 76 -6 -6 1010.6 1009.8

 

Местоположение метеостанции Венеция аэропорт (Италия): широта 45.43 долгота 12.38 высота над уровнем моря 6 м.

В архиве по умолчанию представлена погода в Венеция аэропорту за последнюю неделю. Архивные данные за месяц целиком и за предыдущие месяцы, начиная с января 2011 года, Вы можете получить, выбрав интересующий диапазон дат из раскрывающегося списка и нажав кнопку "Ввод!".


*Определитесь, кто Вы:
робот инопланетянин человек

Внимание! Время в таблицах - всемирное. Для получения местного времени необходимо прибавить поправку, которая равна 1 ч.

Смотрите также архив погоды в соседних городах и на ближайших метеорологических станциях:

Погода в Венеции (Италия) (9 км)
Погода в Тревизо (Италия) (29 км)
Погода в Тревизо аэропорту (Италия) (35 км)
Погода в Конкордия-Саджиттарии (Италия) (51 км)
Погода в Авиано (Италия) (69 км)
Погода на Базе ВВС Авиано (Италия) (69 км)
Погода на Базе ВВС Риволто (Италия) (79 км)
Погода в Ферраре (Италия) (89 км)
Погода в Портороже (Словения) (93 км)
Погода в Ронки-деи-Леджонари (Италия) (96 км)

Пояснения к столбцам:

Ветер - указаны скорость ветра в м/с - средняя за 10 мин, порывы в срок и между сроками (в фигурных скобках) и направление, откуда дует ветер: С - северный, СВ - северо-восточный, В - восточный, ЮВ - юго-восточный, Ю - южный, ЮЗ - юго-западный, З - западный, СЗ - северо-западный.
Видимость - горизонтальная дальность видимости в метрах или километрах. При видимости от 1 до 10 км при отсутствии осадков обычно наблюдается дымка, при ухудшении видимости до 1 км и менее - туман. В сухую погоду видимость может ухудшаться дымом, пылью или мглою.
Явления - указаны атмосферные явления, наблюдавшиеся в срок или в последний час перед сроком; фигурными скобками обозначены явления, наблюдавшиеся между сроками (за 1-3 часа до срока); квадратными скобками обозначены град или гололедные отложения с указанием их диаметра в мм.
Облачность - указаны через наклонную черту общая и нижняя облачность в баллах и высота нижней границы облаков в метрах; квадратными скобками обозначены формы облаков: Ci - перистые, Cs - перисто-слоистые, Cc - перисто-кучевые, Ac - высококучевые, As - высокослоистые, Sc - слоисто-кучевые, Ns - слоисто-дождевые, Cu - кучевые, Cb - кучево-дождевые. Подробнее классификацию облаков см. в Атласе облаков (PDF).
T - Температура воздуха - температура, измеренная на высоте 2 м над землей.
Td - Температура точки росы - температура, при понижении до которой содержащийся в воздухе водяной пар достигнет насыщения.
f - Относительная влажность воздуха - влажноcть воздуха, измеренная на высоте 2 м над землей.
Te - Эффективная температура - температура, которую ощущает одетый по сезону человек в тени. Характеристика душности погоды. При расчете учитывается влияние влажности воздуха и скорости ветра на теплоощущения человека.
Tes - Эффективная температура на солнце - температура, которую ощущает человек, с поправкой на солнечный нагрев. Характеристика знойности погоды. Зависит от высоты солнца над горизонтом, облачности и скорости ветра. Ночью, в пасмурную погоду, а также при ветре 12 м/с и более поправка равна нулю.
P - Атмосферное давление - приведенное к уровню моря атмосферное давление.
Po - Атмосферное давление - измеренное на уровне метеостанции атмосферное давление.
Tmin - Минимальная температура - минимум температуры воздуха на высоте 2 м над землей.
Tmax - Максимальная температура - максимум температуры воздуха на высоте 2 м над землей.
R - Количество осадков - Количество выпавших осадков за период времени, мм. При наведении курсора мыши на число - период времени, за который выпало указанное количество осадков.
R24 - Количество осадков - Количество выпавших осадков за 24 часа, мм.
S - Снежный покров - Высота снежного покрова, см. При наведении курсора мыши на число - состояние снежного покрова и степень покрытия местности в баллах.